User: anonymous
Location: Caltech
(34.1382°N, 118.1253°W)
Time: 07:01:29
(UTC-07:00)
Language:

Cosmos 1626 - Orbit

View from above orbital plane
View from above orbital plane
View from above satellite
View from above satellite

Ground track
Ground track

The orbit data is extracted from the following two-line orbital elements,

1 15494U 85009A   14244.80556752  .00004551  00000-0  23838-3 0  6447
2 15494 082.4836 185.7665 0003699 051.2263 008.9008 15.15569751613921
Epoch (UTC): 01 September 2014 19:20:01
Eccentricity: 0.0003699
inclination: 82.4836°
perigee height: 517 km
apogee height: 522 km
right ascension of ascending node: 185.7665°
argument of perigee: 51.2263°
revolutions per day: 15.15569751
mean anomaly at epoch: 8.9008°
orbit number at epoch: 61392

The dashed part of the orbit path shows where the satellite is in the earth's shadow,  

DLR